{"data":{"norad_id":56389,"intl_designator":"2023-061R","name":"STARLINK-6145","alt_names":[],"object_type":"PAYLOAD","status":"ACTIVE","operator":null,"country":"US","launch_date":"2023-05-04","launch_site_code":"AFETR","launch_vehicle":null,"mission":null,"orbit_class":"UNKNOWN","rcs_meters":null,"size_class":null,"mass_kg":null,"dimensions":null,"purposes":["comms"],"wikipedia_slug":null,"has_3d_model":false,"image_url":null,"decayed_at":null,"tle_current":{"epoch":"2026-05-25T05:35:50.881056Z","epoch_age_seconds":58206,"freshness":"FRESH","line1":"1 56389U 23061R   26145.23322779  .00000501  00000+0  27736-4 0  9990","line2":"2 56389  43.0016 125.8170 0001256 263.4939  96.5769 15.27579156168455","mean_motion":15.27579156,"eccentricity":0.0001256,"inclination_deg":43.0016,"raan_deg":125.817,"arg_perigee_deg":263.4939,"mean_anomaly_deg":96.5769,"bstar":2.7736e-5,"rev_number":16845,"period_min":94.266800796803,"perigee_km":482.18985798936,"apogee_km":483.91338857153,"semimajor_km":6861.1886232804,"source":"CELESTRAK","updated_at":"2026-05-25T13:38:18.013473Z"}}}